| time (UTC) | temp C | wind direction | speed KPH | gust KPH | rain 1hr cm | rain 24hr cm | rain mn cm | humidity % | barometer mb |
| 20260831103031 | 15 | 241 | 0.0 | 0.0 | 0.00 | 0.41 | 0.00 | 98 | 1020.5 |
| 20260831101536 | 15 | 241 | 0.0 | 0.0 | 0.00 | 0.41 | 0.00 | 98 | 1020.3 |
| 20260831100018 | 15 | 241 | 0.0 | 3.2 | 0.00 | 0.41 | 0.00 | 98 | 1020.2 |
| 20260831094530 | 15 | 241 | 0.0 | 1.6 | 0.00 | 0.41 | 0.00 | 98 | 1020.1 |
| 20260831093040 | 15 | 241 | 0.0 | 0.0 | 0.00 | 0.41 | 0.00 | 98 | 1020.2 |
| 20260831091530 | 15 | 241 | 0.0 | 3.2 | 0.00 | 0.41 | 0.00 | 98 | 1020.2 |
| 20260831090039 | 15 | 241 | 0.0 | 3.2 | 0.00 | 0.41 | 0.00 | 98 | 1020.2 |
| 20260831084524 | 15 | 241 | 0.0 | 1.6 | 0.00 | 0.41 | 0.00 | 98 | 1020.3 |
| 20260831083031 | 15 | 241 | 0.0 | 1.6 | 0.00 | 0.41 | 0.00 | 98 | 1020.3 |
| 20260831081531 | 15 | 241 | 0.0 | 0.0 | 0.00 | 0.41 | 0.00 | 98 | 1020.4 |
| 20260831080036 | 15 | 241 | 0.0 | 1.6 | 0.00 | 0.41 | 0.00 | 98 | 1020.4 |
| 20260831074533 | 15 | 241 | 0.0 | 3.2 | 0.00 | 0.41 | 0.00 | 98 | 1020.2 |
| 20260831073029 | 15 | 241 | 0.0 | 3.2 | 0.00 | 0.41 | 0.00 | 98 | 1020.1 |
| 20260831071533 | 15 | 241 | 0.0 | 0.0 | 0.00 | 0.41 | 0.00 | 98 | 1020.4 |
| 20260831070038 | 15 | 241 | 0.0 | 3.2 | 0.00 | 0.41 | 0.00 | 98 | 1020.3 |
| 20260831064537 | 15 | 241 | 0.0 | 1.6 | 0.00 | 0.41 | 0.00 | 98 | 1020.2 |
| 20260831063025 | 16 | 241 | 0.0 | 1.6 | 0.00 | 0.41 | 0.00 | 98 | 1020.2 |
| 20260831061529 | 16 | 241 | 0.0 | 1.6 | 0.00 | 0.41 | 0.00 | 98 | 1020.3 |
| 20260831060030 | 16 | 241 | 0.0 | 0.0 | 0.00 | 0.41 | 0.00 | 98 | 1020.4 |
| 20260831054534 | 16 | 241 | 0.0 | 3.2 | 0.00 | 0.41 | 0.00 | 98 | 1020.5 |
| 20260831053035 | 16 | 241 | 0.0 | 1.6 | 0.00 | 0.41 | 0.00 | 98 | 1020.6 |
| 20260831051504 | 16 | 241 | 0.0 | 1.6 | 0.00 | 0.41 | 0.00 | 98 | 1020.9 |
| 20260831050007 | 16 | 241 | 0.0 | 3.2 | 0.00 | 0.41 | 0.00 | 98 | 1021.1 |
| 20260831044513 | 16 | 241 | 0.0 | 0.0 | 0.00 | 0.41 | 0.00 | 98 | 1021.0 |
| 20260831043019 | 16 | 241 | 0.0 | 1.6 | 0.00 | 0.41 | 0.00 | 98 | 1020.9 |
| 20260831041504 | 16 | 241 | 0.0 | 1.6 | 0.00 | 0.41 | 0.00 | 98 | 1020.8 |
| 20260831040006 | 16 | 241 | 0.0 | 0.0 | 0.00 | 0.41 | 0.00 | 98 | 1020.9 |
| 20260831034508 | 16 | 241 | 0.0 | 1.6 | 0.00 | 0.41 | 0.41 | 98 | 1020.9 |
| 20260831033014 | 16 | 241 | 0.0 | 1.6 | 0.00 | 0.41 | 0.41 | 98 | 1020.8 |
| 20260831031521 | 16 | 241 | 0.0 | 1.6 | 0.00 | 0.41 | 0.41 | 98 | 1020.5 |
| 20260831030004 | 16 | 241 | 0.0 | 3.2 | 0.00 | 0.41 | 0.41 | 98 | 1020.5 |
| 20260831024506 | 16 | 198 | 0.0 | 3.2 | 0.00 | 0.41 | 0.41 | 98 | 1020.5 |
| 20260831023014 | 16 | 198 | 0.0 | 3.2 | 0.00 | 0.41 | 0.41 | 98 | 1020.5 |
| 20260831021520 | 16 | 198 | 0.0 | 1.6 | 0.00 | 0.41 | 0.41 | 98 | 1020.5 |
| 20260831020025 | 16 | 198 | 0.0 | 0.0 | 0.00 | 0.41 | 0.41 | 98 | 1020.6 |
| 20260831014506 | 16 | 198 | 0.0 | 1.6 | 0.00 | 0.41 | 0.41 | 97 | 1020.5 |
| 20260831013011 | 16 | 198 | 0.0 | 1.6 | 0.00 | 0.41 | 0.41 | 97 | 1020.4 |
| 20260831011516 | 16 | 198 | 0.0 | 4.8 | 0.00 | 0.41 | 0.41 | 97 | 1020.4 |
| 20260831010025 | 16 | 260 | 3.2 | 6.4 | 0.00 | 0.41 | 0.41 | 97 | 1020.2 |
| 20260831004527 | 16 | 238 | 1.6 | 4.8 | 0.00 | 0.41 | 0.41 | 97 | 1020.3 |
| 20260831003008 | 16 | 202 | 1.6 | 6.4 | 0.00 | 0.41 | 0.41 | 97 | 1020.1 |
| 20260831001512 | 16 | 263 | 1.6 | 3.2 | 0.00 | 0.41 | 0.41 | 97 | 1019.9 |
| 20260831000021 | 16 | 243 | 0.0 | 4.8 | 0.00 | 0.41 | 0.41 | 97 | 1019.8 |
| 20260830234550 | 16 | 285 | 0.0 | 4.8 | 0.00 | 0.41 | 0.41 | 97 | 1019.6 |
| 20260830233033 | 16 | 263 | 0.0 | 9.7 | 0.00 | 0.41 | 0.41 | 97 | 1019.4 |
| 20260830231513 | 17 | 267 | 1.6 | 4.8 | 0.00 | 0.41 | 0.41 | 97 | 1019.4 |
| 20260830230018 | 16 | 263 | 1.6 | 9.7 | 0.00 | 0.41 | 0.41 | 97 | 1019.4 |
| 20260830224525 | 16 | 268 | 3.2 | 11.3 | 0.00 | 0.41 | 0.41 | 97 | 1019.5 |
| 20260830223035 | 16 | 328 | 1.6 | 6.4 | 0.00 | 0.41 | 0.41 | 97 | 1019.5 |
| 20260830221536 | 16 | 235 | 1.6 | 6.4 | 0.00 | 0.41 | 0.41 | 97 | 1019.4 |
| 20260830220014 | 16 | 225 | 3.2 | 4.8 | 0.00 | 0.41 | 0.41 | 97 | 1019.4 |
| 20260830214520 | 16 | 249 | 1.6 | 6.4 | 0.00 | 0.41 | 0.41 | 97 | 1019.4 |
| 20260830213027 | 16 | 261 | 1.6 | 6.4 | 0.00 | 0.41 | 0.41 | 97 | 1019.3 |
| 20260830211534 | 16 | 161 | 3.2 | 6.4 | 0.00 | 0.41 | 0.41 | 97 | 1019.4 |
| 20260830210012 | 16 | 242 | 0.0 | 6.4 | 0.00 | 0.41 | 0.41 | 97 | 1019.5 |
| 20260830204516 | 16 | 218 | 1.6 | 4.8 | 0.00 | 0.41 | 0.41 | 96 | 1019.6 |
| 20260830203042 | 16 | 264 | 1.6 | 4.8 | 0.00 | 0.41 | 0.41 | 96 | 1019.6 |
| 20260830201531 | 16 | 217 | 0.0 | 3.2 | 0.00 | 0.41 | 0.41 | 96 | 1019.6 |
| 20260830200032 | 16 | 286 | 0.0 | 3.2 | 0.05 | 0.41 | 0.41 | 96 | 1019.6 |
| 20260830194512 | 16 | 227 | 0.0 | 4.8 | 0.05 | 0.41 | 0.41 | 96 | 1019.5 |
| 20260830193023 | 16 | 252 | 1.6 | 8.0 | 0.10 | 0.41 | 0.41 | 96 | 1019.6 |
| 20260830191527 | 16 | 269 | 1.6 | 6.4 | 0.20 | 0.41 | 0.41 | 95 | 1020.1 |
| 20260830190036 | 16 | 290 | 3.2 | 11.3 | 0.23 | 0.36 | 0.36 | 95 | 1020.3 |
| 20260830184534 | 16 | 319 | 4.8 | 9.7 | 0.36 | 0.36 | 0.36 | 95 | 1020.4 |
| 20260830183022 | 16 | 302 | 1.6 | 9.7 | 0.30 | 0.30 | 0.30 | 94 | 1020.4 |
| 20260830181524 | 16 | 322 | 1.6 | 16.1 | 0.20 | 0.20 | 0.20 | 92 | 1020.5 |
| 20260830180036 | 17 | 320 | 3.2 | 6.4 | 0.13 | 0.13 | 0.13 | 89 | 1020.4 |
| 20260830174539 | 18 | 232 | 1.6 | 6.4 | 0.00 | 0.00 | 0.00 | 85 | 1020.4 |
| 20260830173050 | 18 | 293 | 1.6 | 14.5 | 0.00 | 0.00 | 0.00 | 81 | 1020.2 |
| 20260830171521 | 20 | 290 | 1.6 | 8.0 | 0.00 | 0.00 | 0.00 | 77 | 1020.0 |
| 20260830170003 | 20 | 305 | 3.2 | 8.0 | 0.00 | 0.00 | 0.00 | 75 | 1020.0 |
| 20260830164507 | 20 | 304 | 0.0 | 12.9 | 0.00 | 0.00 | 0.00 | 75 | 1020.1 |
| 20260830163016 | 20 | 336 | 3.2 | 11.3 | 0.00 | 0.00 | 0.00 | 74 | 1020.1 |
| 20260830161515 | 20 | 269 | 1.6 | 8.0 | 0.00 | 0.00 | 0.00 | 73 | 1019.9 |
| 20260830160024 | 20 | 244 | 3.2 | 9.7 | 0.00 | 0.00 | 0.00 | 73 | 1020.0 |
| 20260830154509 | 20 | 220 | 1.6 | 11.3 | 0.00 | 0.00 | 0.00 | 72 | 1020.1 |
| 20260830153013 | 20 | 248 | 1.6 | 11.3 | 0.00 | 0.00 | 0.00 | 74 | 1020.2 |
| 20260830151516 | 20 | 269 | 3.2 | 6.4 | 0.00 | 0.00 | 0.00 | 73 | 1020.1 |
| 20260830150026 | 20 | 202 | 1.6 | 4.8 | 0.00 | 0.00 | 0.00 | 77 | 1020.2 |
| 20260830144504 | 19 | 159 | 0.0 | 6.4 | 0.00 | 0.00 | 0.00 | 78 | 1020.0 |
| 20260830143005 | 19 | 217 | 0.0 | 4.8 | 0.00 | 0.00 | 0.00 | 80 | 1020.2 |
| 20260830141514 | 18 | 217 | 0.0 | 4.8 | 0.00 | 0.00 | 0.00 | 80 | 1020.1 |
| 20260830140018 | 18 | 130 | 1.6 | 4.8 | 0.00 | 0.00 | 0.00 | 81 | 1020.2 |
| 20260830134529 | 17 | 130 | 0.0 | 4.8 | 0.00 | 0.00 | 0.00 | 84 | 1020.2 |
| 20260830133006 | 17 | 169 | 1.6 | 4.8 | 0.00 | 0.00 | 0.00 | 85 | 1020.2 |
| 20260830131522 | 17 | 128 | 1.6 | 6.4 | 0.00 | 0.00 | 0.00 | 86 | 1020.2 |
| 20260830130015 | 16 | 165 | 1.6 | 6.4 | 0.00 | 0.00 | 0.00 | 86 | 1020.1 |
| 20260830124522 | 16 | 152 | 3.2 | 6.4 | 0.00 | 0.00 | 0.00 | 85 | 1020.1 |
| 20260830123027 | 16 | 238 | 1.6 | 4.8 | 0.00 | 0.00 | 0.00 | 87 | 1020.3 |
| 20260830121507 | 15 | 238 | 3.2 | 4.8 | 0.00 | 0.00 | 0.00 | 90 | 1020.4 |
| 20260830120013 | 15 | 238 | 0.0 | 1.6 | 0.00 | 0.00 | 0.00 | 91 | 1020.2 |
| 20260830114516 | 15 | 238 | 0.0 | 3.2 | 0.00 | 0.00 | 0.00 | 91 | 1020.4 |
| 20260830113029 | 14 | 238 | 0.0 | 1.6 | 0.00 | 0.00 | 0.00 | 92 | 1020.1 |
| 20260830111530 | 14 | 238 | 0.0 | 3.2 | 0.00 | 0.00 | 0.00 | 92 | 1020.2 |
| 20260830110010 | 13 | 238 | 0.0 | 3.2 | 0.00 | 0.00 | 0.00 | 92 | 1020.3 |
| 20260830104515 | 13 | 238 | 0.0 | 1.6 | 0.00 | 0.00 | 0.00 | 92 | 1020.3 |